Regional Weather Roundup
Issued by NWS

Home | Current Version | Previous Version | Text Only | Print | Product List | Glossary On
Versions: 1 2 3 4 5 6 7 8 9 10 11 12 13 14 15 16 17 18 19 20 21 22 23 24 25 26 27 28 29 30 31 32 33 34 35 36 37 38 39 40 41 42 43 44 45 46 47 48 49 50
000
ASUS43 KLSX 232210
RWRMO

WEATHER SUMMARY FOR MISSOURI
NATIONAL WEATHER SERVICE SPRINGFIELD MO
500 PM CDT MON MAY 23 2016

NOTE: "FAIR" INDICATES FEW OR NO CLOUDS BELOW 12,000 FEET WITH NO
       SIGNIFICANT WEATHER AND/OR OBSTRUCTIONS TO VISIBILITY.
       CURRENT SKY AND/OR WEATHER CONDITIONS ARE NOT AVAILABLE FOR
       CHILLICOTHE AND FARMINGTON.

MOZ001>031-035>038-043-044-053-054-232300-
...NORTHERN AND WESTERN MISSOURI...

CITY           SKY/WX    TMP DP  RH WIND       PRES   REMARKS
KANSAS CTY INT CLOUDY    68  63  84 NW6       29.86R
KANSAS C DTWN  CLOUDY    69  61  75 W12G28    29.83F
LEE`S SUMMIT   CLOUDY    72  60  66 SE9       29.83F
ST JOSEPH      PTSUNNY   68  64  87 SE12      29.85F
CHILLICOTHE      N/A     76  62  62 S5        29.89F
KIRKSVILLE     CLOUDY    78  55  44 S7        29.91S

$$
MOZ066>068-077>081-088>096-101>105-232300-
...SOUTHWEST MISSOURI...

CITY           SKY/WX    TMP DP  RH WIND       PRES   REMARKS
SPRINGFIELD    HVY RAIN  70  61  73 W10       29.95R
JOPLIN         LGT RAIN  67  64  90 W8        29.97R
BRANSON        LGT RAIN  68  63  83 S5        29.97R

$$
MOZ032>034-039>042-045>050-055>058-069>072-232300-
...CENTRAL MISSOURI...

CITY           SKY/WX    TMP DP  RH WIND       PRES   REMARKS
COLUMBIA       MOSUNNY   77  55  46 S9        29.92S
JEFFERSON CITY MOSUNNY   79  55  43 S9        29.91S
ROLLA          MOSUNNY   76  57  51 SE8       29.92F
SEDALIA        CLOUDY    78  62  57 SW6       29.92S
WHITEMAN AFB   CLOUDY    75  62  65 W6        29.90S
WARRENSBURG    CLOUDY    73  59  60 S5        29.89F
OSAGE BEACH      N/A    N/A N/A N/A MISG      29.93R

$$
MOZ051-052-059>065-232300-
...EAST CENTRAL MISSOURI...

CITY           SKY/WX    TMP DP  RH WIND       PRES   REMARKS
ST LOUIS INTL  CLOUDY    83  47  28 S14G20    29.94F
SPIRIT OF STL  CLOUDY    81  51  35 SW9       29.93S
ST CHARLES     CLOUDY    84  51  31 S13       29.92F

$$
MOZ072>076-082>087-097>100-106>115-232300-
...SOUTH CENTRAL AND SOUTHEAST MISSOURI...

CITY           SKY/WX    TMP DP  RH WIND       PRES   REMARKS
CAPE GIRARDEAU CLOUDY    79  55  43 SW3       29.94F
FARMINGTON     CLOUDY    75  55  49 S7        29.98F
POPLAR BLUFF   CLOUDY    81  54  39 S7        29.94F
WEST PLAINS    MOSUNNY   78  53  41 E10       29.96S

$$



USA.gov is the U.S. government's official web portal to all federal, state and local government web resources and services.